Time,TemperatureF,DewpointF,PressureIn,WindDirection,WindDirectionDegrees,WindSpeedMPH,WindSpeedGustMPH,Humidity,HourlyPrecipIn,Conditions,Clouds,dailyrainin,SoftwareType,DateUTC
2013-05-07 00:03:00,59.0,53.0,30.01,NNW,336,3.0,4.0,80,99.99,,,-99.99,,2013-05-07 04:03:00,
2013-05-07 00:12:00,59.0,53.0,30.01,NNW,336,3.0,4.0,80,99.99,,,-99.99,,2013-05-07 04:12:00,
2013-05-07 00:23:00,59.0,52.0,30.01,NNW,336,4.0,4.0,79,99.99,,,-99.99,,2013-05-07 04:23:00,
2013-05-07 00:33:00,59.0,53.0,30.01,North,354,3.0,4.0,80,99.99,,,-99.99,,2013-05-07 04:33:00,
2013-05-07 00:42:00,59.0,53.0,30.01,North,354,3.0,4.0,80,99.99,,,-99.99,,2013-05-07 04:42:00,
2013-05-07 00:53:00,58.0,52.0,30.01,North,354,3.0,4.0,81,99.99,,,-99.99,,2013-05-07 04:53:00,
2013-05-07 01:02:00,58.0,53.0,30.01,North,354,3.0,4.0,83,99.99,,,-99.99,,2013-05-07 05:02:00,
2013-05-07 01:12:00,58.0,53.0,30.01,North,354,3.0,4.0,83,99.99,,,-99.99,,2013-05-07 05:12:00,
2013-05-07 01:22:00,57.0,53.0,30.01,NNW,342,3.0,4.0,85,99.99,,,-99.99,,2013-05-07 05:22:00,
2013-05-07 01:32:00,57.0,53.0,30.01,NNW,333,5.0,6.0,87,99.99,,,-99.99,,2013-05-07 05:32:00,
2013-05-07 01:42:00,57.0,53.0,30.01,NNW,333,5.0,6.0,87,99.99,,,-99.99,,2013-05-07 05:42:00,
2013-05-07 01:52:00,58.0,54.0,30.01,NNW,347,3.0,5.0,86,99.99,,,-99.99,,2013-05-07 05:52:00,
2013-05-07 02:02:00,57.0,53.0,30.00,NNW,333,3.0,4.0,85,99.99,,,-99.99,,2013-05-07 06:02:00,
2013-05-07 02:12:00,57.0,53.0,30.00,NNW,333,3.0,4.0,85,99.99,,,-99.99,,2013-05-07 06:12:00,
2013-05-07 02:22:00,57.0,53.0,30.00,NNW,332,2.0,3.0,86,99.99,,,-99.99,,2013-05-07 06:22:00,
2013-05-07 02:32:00,56.0,52.0,29.99,North,0,0.0,0.0,88,99.99,,,-99.99,,2013-05-07 06:32:00,
2013-05-07 02:42:00,56.0,52.0,29.99,North,0,0.0,0.0,88,99.99,,,-99.99,,2013-05-07 06:42:00,
2013-05-07 02:52:00,55.0,52.0,29.99,North,0,0.0,0.0,90,99.99,,,-99.99,,2013-05-07 06:52:00,
2013-05-07 03:02:00,55.0,52.0,29.98,North,0,0.0,0.0,91,99.99,,,-99.99,,2013-05-07 07:02:00,
2013-05-07 03:11:00,55.0,52.0,29.98,North,0,0.0,0.0,91,99.99,,,-99.99,,2013-05-07 07:11:00,
2013-05-07 03:22:00,54.0,52.0,29.99,North,0,0.0,0.0,92,99.99,,,-99.99,,2013-05-07 07:22:00,
2013-05-07 03:32:00,54.0,52.0,29.99,North,0,0.0,0.0,93,99.99,,,-99.99,,2013-05-07 07:32:00,
2013-05-07 03:42:00,54.0,52.0,29.99,North,0,0.0,0.0,93,99.99,,,-99.99,,2013-05-07 07:42:00,
2013-05-07 03:52:00,53.0,51.0,29.99,North,0,0.0,0.0,94,99.99,,,-99.99,,2013-05-07 07:52:00,
2013-05-07 04:02:00,53.0,52.0,29.99,North,0,0.0,0.0,95,99.99,,,-99.99,,2013-05-07 08:02:00,
2013-05-07 04:11:00,53.0,52.0,29.99,North,0,0.0,0.0,95,99.99,,,-99.99,,2013-05-07 08:11:00,
2013-05-07 04:21:00,53.0,52.0,29.99,North,0,0.0,0.0,96,99.99,,,-99.99,,2013-05-07 08:21:00,
2013-05-07 04:32:00,53.0,52.0,29.99,West,278,3.0,4.0,96,99.99,,,-99.99,,2013-05-07 08:32:00,
2013-05-07 04:42:00,53.0,52.0,29.99,West,278,3.0,4.0,96,99.99,,,-99.99,,2013-05-07 08:42:00,
2013-05-07 04:52:00,52.0,51.0,29.99,WSW,255,2.0,3.0,97,99.99,,,-99.99,,2013-05-07 08:52:00,
2013-05-07 05:01:00,52.0,51.0,29.98,West,260,2.0,3.0,97,99.99,,,-99.99,,2013-05-07 09:01:00,
2013-05-07 05:11:00,52.0,51.0,29.98,West,260,2.0,3.0,97,99.99,,,-99.99,,2013-05-07 09:11:00,
2013-05-07 05:22:00,52.0,51.0,29.98,WSW,250,3.0,3.0,97,99.99,,,-99.99,,2013-05-07 09:22:00,
2013-05-07 05:33:00,52.0,51.0,29.99,SW,233,2.0,3.0,98,99.99,,,-99.99,,2013-05-07 09:33:00,
2013-05-07 05:42:00,52.0,51.0,29.99,SW,233,2.0,3.0,98,99.99,,,-99.99,,2013-05-07 09:42:00,
2013-05-07 05:52:00,52.0,51.0,29.99,SW,231,2.0,3.0,98,99.99,,,-99.99,,2013-05-07 09:52:00,
2013-05-07 06:03:00,53.0,53.0,29.99,SW,226,2.0,3.0,99,99.99,,,-99.99,,2013-05-07 10:03:00,
2013-05-07 06:12:00,53.0,53.0,29.99,SW,226,2.0,3.0,99,99.99,,,-99.99,,2013-05-07 10:12:00,
2013-05-07 06:23:00,53.0,53.0,30.00,North,0,0.0,0.0,99,99.99,,,-99.99,,2013-05-07 10:23:00,
2013-05-07 06:32:00,52.0,52.0,30.00,North,0,0.0,0.0,100,99.99,,,-99.99,,2013-05-07 10:32:00,
2013-05-07 06:42:00,52.0,52.0,30.01,North,0,0.0,0.0,100,99.99,,,-99.99,,2013-05-07 10:42:00,
2013-05-07 06:52:00,52.0,52.0,30.01,North,0,0.0,0.0,100,99.99,,,-99.99,,2013-05-07 10:52:00,
2013-05-07 07:02:00,52.0,52.0,30.01,North,0,0.0,0.0,100,99.99,,,-99.99,,2013-05-07 11:02:00,
2013-05-07 07:12:00,52.0,52.0,30.01,North,0,0.0,0.0,100,99.99,,,-99.99,,2013-05-07 11:12:00,
2013-05-07 07:22:00,52.0,52.0,30.02,North,0,0.0,0.0,100,99.99,,,-99.99,,2013-05-07 11:22:00,
2013-05-07 07:32:00,52.0,52.0,30.03,North,0,0.0,0.0,100,99.99,,,-99.99,,2013-05-07 11:32:00,
2013-05-07 07:42:00,52.0,52.0,30.03,North,0,0.0,0.0,100,99.99,,,-99.99,,2013-05-07 11:42:00,
2013-05-07 07:52:00,53.0,53.0,30.03,North,0,0.0,0.0,100,99.99,,,-99.99,,2013-05-07 11:52:00,
2013-05-07 08:02:00,55.0,55.0,30.04,North,0,0.0,0.0,100,99.99,,,-99.99,,2013-05-07 12:02:00,
2013-05-07 08:11:00,55.0,55.0,30.04,North,0,0.0,0.0,100,99.99,,,-99.99,,2013-05-07 12:11:00,
2013-05-07 08:21:00,57.0,57.0,30.04,North,0,0.0,0.0,100,99.99,,,-99.99,,2013-05-07 12:21:00,
2013-05-07 08:32:00,58.0,58.0,30.04,North,0,0.0,0.0,100,99.99,,,-99.99,,2013-05-07 12:32:00,
2013-05-07 08:42:00,58.0,58.0,30.04,North,0,0.0,0.0,100,99.99,,,-99.99,,2013-05-07 12:42:00,
2013-05-07 08:52:00,60.0,60.0,30.04,West,266,0.0,2.0,100,99.99,,,-99.99,,2013-05-07 12:52:00,
2013-05-07 09:02:00,62.0,62.0,30.04,WNW,290,3.0,5.0,99,99.99,,,-99.99,,2013-05-07 13:02:00,
2013-05-07 09:11:00,62.0,62.0,30.04,WNW,290,3.0,5.0,99,99.99,,,-99.99,,2013-05-07 13:11:00,
2013-05-07 09:22:00,65.0,61.0,30.04,WSW,255,3.0,5.0,88,99.99,,,-99.99,,2013-05-07 13:22:00,
2013-05-07 09:32:00,68.0,60.0,30.04,WNW,284,5.0,8.0,75,99.99,,,-99.99,,2013-05-07 13:32:00,
2013-05-07 09:42:00,68.0,60.0,30.04,WNW,284,5.0,8.0,75,99.99,,,-99.99,,2013-05-07 13:42:00,
2013-05-07 09:52:00,69.0,58.0,30.05,West,273,5.0,8.0,68,99.99,,,-99.99,,2013-05-07 13:52:00,
2013-05-07 10:02:00,70.0,56.0,30.04,West,278,5.0,9.0,62,99.99,,,-99.99,,2013-05-07 14:02:00,
2013-05-07 10:11:00,70.0,56.0,30.04,West,278,5.0,9.0,62,99.99,,,-99.99,,2013-05-07 14:11:00,
2013-05-07 10:21:00,71.0,57.0,30.04,NW,323,5.0,9.0,61,99.99,,,-99.99,,2013-05-07 14:21:00,
2013-05-07 10:32:00,71.0,56.0,30.05,West,276,8.0,12.0,60,99.99,,,-99.99,,2013-05-07 14:32:00,
2013-05-07 10:42:00,71.0,56.0,30.05,West,276,8.0,12.0,60,99.99,,,-99.99,,2013-05-07 14:42:00,
2013-05-07 10:52:00,72.0,55.0,30.04,West,266,7.0,12.0,56,99.99,,,-99.99,,2013-05-07 14:52:00,
2013-05-07 11:01:00,72.0,56.0,30.05,WNW,285,6.0,11.0,57,99.99,,,-99.99,,2013-05-07 15:01:00,
2013-05-07 11:12:00,72.0,56.0,30.05,WNW,285,6.0,11.0,57,99.99,,,-99.99,,2013-05-07 15:12:00,
2013-05-07 11:21:00,73.0,56.0,30.05,West,277,6.0,12.0,55,99.99,,,-99.99,,2013-05-07 15:21:00,
2013-05-07 11:33:00,74.0,56.0,30.05,WSW,246,7.0,10.0,54,99.99,,,-99.99,,2013-05-07 15:33:00,
2013-05-07 11:42:00,74.0,56.0,30.05,WSW,246,7.0,10.0,54,99.99,,,-99.99,,2013-05-07 15:42:00,
2013-05-07 11:53:00,74.0,56.0,30.05,WSW,246,7.0,10.0,54,99.99,,,-99.99,,2013-05-07 15:53:00,
2013-05-07 12:03:00,76.0,56.0,30.05,SW,235,7.0,11.0,50,99.99,,,-99.99,,2013-05-07 16:03:00,
2013-05-07 12:12:00,76.0,55.0,30.04,West,262,8.0,13.0,49,99.99,,,-99.99,,2013-05-07 16:12:00,
2013-05-07 12:22:00,76.0,55.0,30.04,West,262,8.0,13.0,49,99.99,,,-99.99,,2013-05-07 16:22:00,
2013-05-07 12:32:00,76.0,57.0,30.04,WNW,291,8.0,15.0,52,99.99,,,-99.99,,2013-05-07 16:32:00,
2013-05-07 12:41:00,76.0,57.0,30.04,WNW,291,8.0,15.0,52,99.99,,,-99.99,,2013-05-07 16:41:00,
2013-05-07 12:52:00,76.0,57.0,30.04,WNW,291,8.0,15.0,52,99.99,,,-99.99,,2013-05-07 16:52:00,
2013-05-07 13:01:00,77.0,55.0,30.04,West,267,8.0,13.0,47,99.99,,,-99.99,,2013-05-07 17:01:00,
2013-05-07 13:12:00,77.0,55.0,30.03,West,271,6.0,10.0,47,99.99,,,-99.99,,2013-05-07 17:12:00,
2013-05-07 13:21:00,77.0,55.0,30.03,West,271,6.0,10.0,47,99.99,,,-99.99,,2013-05-07 17:21:00,
2013-05-07 13:32:00,79.0,56.0,30.02,NW,309,7.0,13.0,46,99.99,,,-99.99,,2013-05-07 17:32:00,
2013-05-07 13:41:00,81.0,55.0,30.02,SW,219,8.0,14.0,41,99.99,,,-99.99,,2013-05-07 17:41:00,
2013-05-07 13:52:00,81.0,55.0,30.02,SW,219,8.0,14.0,41,99.99,,,-99.99,,2013-05-07 17:52:00,
2013-05-07 14:01:00,81.0,54.0,30.01,West,267,8.0,14.0,39,99.99,,,-99.99,,2013-05-07 18:01:00,
2013-05-07 14:11:00,82.0,53.0,30.01,West,260,9.0,15.0,37,99.99,,,-99.99,,2013-05-07 18:11:00,
2013-05-07 14:21:00,82.0,53.0,30.01,West,260,9.0,15.0,37,99.99,,,-99.99,,2013-05-07 18:21:00,
2013-05-07 14:31:00,80.0,54.0,30.01,West,273,6.0,12.0,41,99.99,,,-99.99,,2013-05-07 18:31:00,
2013-05-07 14:42:00,80.0,54.0,30.01,West,273,6.0,12.0,41,99.99,,,-99.99,,2013-05-07 18:42:00,
2013-05-07 14:52:00,80.0,54.0,30.01,West,270,8.0,14.0,41,99.99,,,-99.99,,2013-05-07 18:52:00,
2013-05-07 15:02:00,82.0,55.0,30.00,West,271,6.0,12.0,39,99.99,,,-99.99,,2013-05-07 19:02:00,
2013-05-07 15:11:00,82.0,55.0,30.00,West,271,6.0,12.0,39,99.99,,,-99.99,,2013-05-07 19:11:00,
2013-05-07 15:21:00,80.0,53.0,29.99,West,266,9.0,12.0,40,99.99,,,-99.99,,2013-05-07 19:21:00,
2013-05-07 15:32:00,80.0,54.0,29.99,NW,304,8.0,15.0,41,99.99,,,-99.99,,2013-05-07 19:32:00,
2013-05-07 15:42:00,80.0,54.0,29.99,NW,304,8.0,15.0,41,99.99,,,-99.99,,2013-05-07 19:42:00,
2013-05-07 15:52:00,82.0,53.0,29.98,WSW,243,9.0,15.0,37,99.99,,,-99.99,,2013-05-07 19:52:00,
2013-05-07 16:02:00,84.0,54.0,29.98,West,271,8.0,16.0,36,99.99,,,-99.99,,2013-05-07 20:02:00,
2013-05-07 16:12:00,84.0,54.0,29.98,West,271,8.0,16.0,36,99.99,,,-99.99,,2013-05-07 20:12:00,
2013-05-07 16:22:00,82.0,53.0,29.98,NW,305,8.0,13.0,37,99.99,,,-99.99,,2013-05-07 20:22:00,
2013-05-07 16:32:00,81.0,52.0,29.98,NW,314,9.0,15.0,37,99.99,,,-99.99,,2013-05-07 20:32:00,
2013-05-07 16:42:00,81.0,52.0,29.98,NW,314,9.0,15.0,37,99.99,,,-99.99,,2013-05-07 20:42:00,
2013-05-07 16:52:00,81.0,52.0,29.97,West,271,8.0,16.0,36,99.99,,,-99.99,,2013-05-07 20:52:00,
2013-05-07 17:01:00,81.0,54.0,29.97,WNW,300,7.0,13.0,39,99.99,,,-99.99,,2013-05-07 21:01:00,
2013-05-07 17:11:00,81.0,54.0,29.97,WNW,300,7.0,13.0,39,99.99,,,-99.99,,2013-05-07 21:11:00,
2013-05-07 17:22:00,80.0,54.0,29.97,WNW,288,8.0,14.0,41,99.99,,,-99.99,,2013-05-07 21:22:00,
2013-05-07 17:32:00,80.0,53.0,29.98,NW,318,8.0,14.0,40,99.99,,,-99.99,,2013-05-07 21:32:00,
2013-05-07 17:42:00,80.0,53.0,29.98,NW,318,8.0,14.0,40,99.99,,,-99.99,,2013-05-07 21:42:00,
2013-05-07 17:53:00,79.0,55.0,29.98,West,262,7.0,14.0,43,99.99,,,-99.99,,2013-05-07 21:53:00,
2013-05-07 18:02:00,80.0,54.0,29.98,West,281,8.0,16.0,41,99.99,,,-99.99,,2013-05-07 22:02:00,
2013-05-07 18:13:00,80.0,54.0,29.98,West,281,8.0,16.0,41,99.99,,,-99.99,,2013-05-07 22:13:00,
2013-05-07 18:22:00,79.0,55.0,29.98,West,270,7.0,12.0,44,99.99,,,-99.99,,2013-05-07 22:22:00,
2013-05-07 18:33:00,79.0,55.0,29.98,West,267,8.0,16.0,44,99.99,,,-99.99,,2013-05-07 22:33:00,
2013-05-07 18:42:00,77.0,55.0,29.98,NW,307,6.0,11.0,46,99.99,,,-99.99,,2013-05-07 22:42:00,
2013-05-07 18:52:00,77.0,55.0,29.98,NW,307,6.0,11.0,46,99.99,,,-99.99,,2013-05-07 22:52:00,
2013-05-07 19:02:00,78.0,55.0,29.98,West,276,7.0,12.0,45,99.99,,,-99.99,,2013-05-07 23:02:00,
2013-05-07 19:12:00,78.0,56.0,29.98,WNW,293,7.0,11.0,46,99.99,,,-99.99,,2013-05-07 23:12:00,
2013-05-07 19:21:00,78.0,56.0,29.98,WNW,293,7.0,11.0,46,99.99,,,-99.99,,2013-05-07 23:21:00,
2013-05-07 19:32:00,77.0,56.0,29.99,NW,308,6.0,11.0,49,99.99,,,-99.99,,2013-05-07 23:32:00,
2013-05-07 19:42:00,76.0,57.0,29.99,WNW,291,5.0,9.0,51,99.99,,,-99.99,,2013-05-07 23:42:00,
2013-05-07 19:52:00,76.0,57.0,29.99,WNW,291,5.0,9.0,51,99.99,,,-99.99,,2013-05-07 23:52:00,
2013-05-07 20:02:00,74.0,56.0,30.00,NW,311,6.0,9.0,54,99.99,,,-99.99,,2013-05-08 00:02:00,
2013-05-07 20:12:00,73.0,56.0,30.01,NW,308,5.0,8.0,55,99.99,,,-99.99,,2013-05-08 00:12:00,
2013-05-07 20:22:00,73.0,56.0,30.01,NW,308,5.0,8.0,55,99.99,,,-99.99,,2013-05-08 00:22:00,
2013-05-07 20:32:00,72.0,55.0,30.01,NNW,332,6.0,11.0,55,99.99,,,-99.99,,2013-05-08 00:32:00,
2013-05-07 20:42:00,72.0,55.0,30.02,NW,305,4.0,7.0,55,99.99,,,-99.99,,2013-05-08 00:42:00,
2013-05-07 20:52:00,72.0,55.0,30.02,NW,305,4.0,7.0,55,99.99,,,-99.99,,2013-05-08 00:52:00,
2013-05-07 21:02:00,71.0,55.0,30.02,WNW,298,3.0,5.0,57,99.99,,,-99.99,,2013-05-08 01:02:00,
2013-05-07 21:11:00,70.0,55.0,30.03,WNW,301,4.0,7.0,60,99.99,,,-99.99,,2013-05-08 01:11:00,
2013-05-07 21:22:00,70.0,55.0,30.03,WNW,301,4.0,7.0,60,99.99,,,-99.99,,2013-05-08 01:22:00,
2013-05-07 21:32:00,69.0,55.0,30.03,WNW,301,5.0,9.0,62,99.99,,,-99.99,,2013-05-08 01:32:00,
2013-05-07 21:42:00,69.0,56.0,30.03,WNW,294,5.0,8.0,64,99.99,,,-99.99,,2013-05-08 01:42:00,
2013-05-07 21:52:00,69.0,56.0,30.03,WNW,294,5.0,8.0,64,99.99,,,-99.99,,2013-05-08 01:52:00,
2013-05-07 22:02:00,68.0,56.0,30.03,NW,311,4.0,7.0,65,99.99,,,-99.99,,2013-05-08 02:02:00,
2013-05-07 22:12:00,68.0,56.0,30.03,NW,311,4.0,7.0,65,99.99,,,-99.99,,2013-05-08 02:12:00,
2013-05-07 22:22:00,68.0,56.0,30.04,WNW,284,4.0,7.0,66,99.99,,,-99.99,,2013-05-08 02:22:00,
2013-05-07 22:32:00,68.0,57.0,30.05,NW,305,4.0,7.0,68,99.99,,,-99.99,,2013-05-08 02:32:00,
2013-05-07 22:42:00,67.0,56.0,30.05,NW,311,3.0,5.0,69,99.99,,,-99.99,,2013-05-08 02:42:00,
2013-05-07 22:52:00,67.0,56.0,30.05,NW,311,3.0,5.0,69,99.99,,,-99.99,,2013-05-08 02:52:00,
2013-05-07 23:02:00,67.0,57.0,30.06,NW,315,3.0,5.0,71,99.99,,,-99.99,,2013-05-08 03:02:00,
2013-05-07 23:11:00,67.0,57.0,30.06,NW,315,3.0,5.0,71,99.99,,,-99.99,,2013-05-08 03:11:00,
2013-05-07 23:21:00,66.0,57.0,30.06,NNW,330,3.0,4.0,73,99.99,,,-99.99,,2013-05-08 03:21:00,
2013-05-07 23:33:00,66.0,58.0,30.06,NW,322,4.0,6.0,75,99.99,,,-99.99,,2013-05-08 03:33:00,
2013-05-07 23:43:00,66.0,58.0,30.06,NW,322,4.0,6.0,75,99.99,,,-99.99,,2013-05-08 03:43:00,
2013-05-07 23:52:00,65.0,57.0,30.06,NW,325,4.0,5.0,76,99.99,,,-99.99,,2013-05-08 03:52:00,